Terug naar catalogus

COSMOS 1275 DEB

LostPO
NORAD 42165·DEBRIS·🇷🇺 Russia

Gelanceerd Jun 4, 1981 vanaf Plesetsk Cosmodrome

Loading…

Volgende Passages (komende 24 uur)

TLE

VerouderdSource: Space-Track

Epoch: Nov 24, 2023, 14:57 UTC

1 42165U 81053SD  23328.62360161  .00008951  00000-0  45293-2 0  9996
2 42165  82.7362 283.3150 0044149 295.7505 188.1433 14.15505236  1961

Volg COSMOS 1275 DEB in realtime met AllMySat

Download on the App Store